Tracking 31027 objects as of 19-Jul-2025
HD Live streaming from Space Station
objects crossing your sky now

OPS 9333 (IDSCS 18)

Track OPS 9333 (IDSCS 18) now!
OPS 9333 (IDSCS 18) is classified as:


NORAD ID: 2864
Int'l Code: 1967-066C
Perigee: 33,093.0 km
Apogee: 33,549.1 km
Inclination: 2.0 °
Period: 1,311.6 minutes
Semi major axis: 39692 km
RCS: 0.1584 m2 (medium)
Launch date: July 1, 1967
Source: United States (US)
Launch site: AIR FORCE EASTERN TEST RANGE (AFETR)
Your satellite tracking list
STARLINK-31879
Track 1 satellite(s)




NASA's NSSDC Master Catalog

Two Line Element Set (TLE):
1 02864U 67066C   25196.24472799 -.00000099  00000-0  00000-0 0  9991
2 02864   2.0162 107.3905 0057459 217.6753 304.1138  1.09786196127848
Source of the keplerian elements: AFSPC